Powrót do katalogu

STARLINK-30551

AktywnyŁącznośćVLEO
NORAD 58083·PAYLOAD·🇺🇸 United States

Wystrzelony Oct 18, 2023 z Cape Canaveral Space Force Station

Loading…

Następne Przeloty (najbliższe 24 godziny)

TLE

ŚwieżeSource: CelesTrak SupGP

Epoka: Sep 15, 2026, 02:27 UTC

1 58083C 23160J   26258.10256944  .00019561  00000+0  70822-3 0  2581
2 58083  42.9993  91.5501 0001118 280.3453 110.6198 15.27581753    10

Śledź STARLINK-30551 w czasie rzeczywistym z AllMySat

Download on the App Store